Location: Sewell
(39.7660°N, 75.1450°W)
Time: 07:59:41
(UTC-04:00)

ISS - Visible Passes

Search period start: 21 October 2014 00:00
Search period end: 31 October 2014 00:00
Orbit: 413 x 416 km, 51.6° (Epoch: 20 October)

Date Brightness Start Highest point End Pass type
(mag) Time Alt. Az. Time Alt. Az. Time Alt. Az.
21 Oct -1.1 18:55:13 10° NNW 18:57:10 15° NNE 18:59:06 10° NE visible
21 Oct -0.5 20:31:11 10° NW 20:31:58 16° NW 20:31:58 16° NW visible
22 Oct -2.2 19:42:16 10° NW 19:45:00 32° NNE 19:45:00 32° NNE visible
23 Oct -1.8 18:53:22 10° NNW 18:56:06 23° NNE 18:58:05 14° ENE visible
23 Oct -0.7 20:29:43 10° WNW 20:30:57 21° WNW 20:30:57 21° WNW visible
24 Oct -3.5 19:40:33 10° NW 19:43:53 82° NE 19:44:08 74° E visible
25 Oct -2.9 18:51:27 10° NW 18:54:42 46° NNE 18:57:25 13° ESE visible
25 Oct -0.5 20:28:45 10° W 20:30:19 17° WSW 20:30:19 17° WSW visible
26 Oct -1.7 19:39:03 10° WNW 19:42:06 33° SW 19:43:47 20° S visible
27 Oct -2.8 18:49:39 10° WNW 18:52:57 63° SW 18:56:14 10° SE visible
28 Oct -0.1 19:38:37 10° WSW 19:39:57 12° SW 19:41:18 10° SSW visible
29 Oct -0.6 18:48:14 10° W 18:50:51 22° SW 18:53:27 10° S visible
